Location: Heilwood
(40.6210°N, 78.9150°W)
Time: 16:08:01
(UTC-04:00)

BREEZE-M DEB (TANK) - Visible Passes

Search period start: 18 August 2017 00:00
Search period end: 28 August 2017 00:00
Orbit: 313 x 15836 km, 49.5° (Epoch: 17 August)

Date Brightness Start Highest point End Pass type
(mag) Time Alt. Az. Time Alt. Az. Time Alt. Az.
18 Aug 5.0 01:11:53 10° WNW 01:53:39 66° SW 01:54:28 65° SSW visible
18 Aug 7.2 17:54:19 10° SW 20:31:13 79° NNW 21:02:02 10° ENE visible
19 Aug 5.1 01:14:14 10° WNW 01:54:42 63° SW 01:55:12 63° SW visible
19 Aug 7.2 17:56:00 10° SW 20:33:13 78° NNW 21:03:15 10° ENE visible
20 Aug 5.2 01:16:31 10° NW 01:55:42 60° SW 01:55:56 59° SW visible
20 Aug 7.2 17:57:45 10° SW 20:35:13 77° NNW 21:04:29 10° ENE visible
21 Aug 5.3 01:18:45 10° NW 01:56:40 56° WSW 01:56:40 56° WSW visible
21 Aug 7.1 17:59:34 10° SW 20:37:13 76° NNW 21:05:42 10° ENE visible
22 Aug 5.5 01:20:55 10° NW 01:57:26 53° WSW 01:57:26 53° WSW visible
22 Aug 7.1 18:01:26 10° SW 20:39:12 76° NNW 21:06:55 10° ENE visible
23 Aug 5.6 01:23:03 10° NW 01:58:11 50° WSW 01:58:11 50° WSW visible
23 Aug 7.1 18:03:23 10° SW 20:41:10 75° NNW 21:08:08 10° ENE visible
24 Aug 5.7 01:25:10 10° NW 01:58:57 47° WSW 01:58:57 47° WSW visible
24 Aug 7.0 18:05:24 10° SW 20:43:08 75° NNW 21:09:21 10° ENE visible
25 Aug 5.8 01:27:14 10° NW 01:59:45 44° WSW 01:59:45 44° WSW visible
25 Aug 7.0 18:07:29 10° WSW 20:45:04 74° N 21:10:33 10° ENE visible
26 Aug 5.9 01:29:17 10° NW 02:00:32 41° WSW 02:00:32 41° WSW visible
26 Aug 7.0 18:09:39 10° WSW 20:47:00 74° N 21:11:45 10° E visible
27 Aug 6.0 01:31:19 10° NW 02:01:19 38° WSW 02:01:19 38° WSW visible
27 Aug 6.9 18:11:54 10° WSW 20:48:53 73° N 21:12:56 10° E visible
